Theta_e
316 315 315 314 312 312 312 312 311 310 311 311 310 310 310 310 310 310 310 310 309 309 309 309 309 309 309 309 309 309 309 309 309 308 307 308 309 309 309 309 309 309 309 309 309 309 309 309 309 308 308 308 308 308 309 309 308 307 306 306 305 305 304 304 304 303 302 301 301
316 315 314 311 310 311 312 311 310 310 310 311 310 310 310 310 310 310 310 310 310 309 309 309 309 309 309 309 309 309 309 309 309 308 308 308 309 309 309 309 309 309 309 309 309 309 309 309 309 309 308 308 308 307 307 309 309 307 306 305 305 305 304 303 303 303 302 301 300
316 316 315 314 313 313 312 311 310 310 310 310 310 310 310 310 310 310 310 310 310 310 309 309 309 309 309 309 309 309 309 309 308 308 308 308 308 309 309 309 309 309 309 309 309 309 309 309 308 307 307 307 307 306 306 307 307 306 305 305 305 305 304 303 303 303 302 301 300
317 316 315 315 314 313 312 311 311 310 310 311 311 311 311 311 311 311 310 310 310 310 309 309 309 309 310 310 309 309 308 307 307 307 307 308 308 308 309 309 309 309 309 309 309 309 309 309 308 307 307 307 306 306 306 306 306 306 305 305 305 305 304 304 303 303 302 301 300
317 316 316 315 314 314 313 312 312 311 311 311 311 311 311 311 311 311 310 310 309 309 310 310 310 310 310 310 309 309 308 307 305 306 307 307 308 308 309 309 309 309 309 309 309 309 308 308 307 307 306 306 305 305 305 306 306 305 305 305 305 305 305 304 303 302 301 300 300
315 315 315 316 316 315 314 313 313 312 312 312 311 311 310 311 311 310 310 309 310 310 310 309 309 309 309 309 309 308 308 308 307 307 307 308 308 308 308 309 309 309 308 308 308 308 308 307 307 306 306 305 305 305 305 305 305 305 305 305 305 304 304 303 302 301 301 300 299
313 313 313 314 314 314 314 314 313 313 312 312 311 311 311 311 311 311 310 310 310 310 310 309 309 309 309 309 309 308 308 307 308 308 308 308 308 308 308 308 308 308 308 308 307 307 307 306 306 305 304 303 304 305 305 305 305 305 304 304 304 303 303 302 301 301 300 300 299
313 312 312 312 312 312 313 313 313 312 312 311 311 311 311 311 311 311 311 310 310 310 309 309 310 310 309 309 308 308 308 308 307 307 307 308 308 308 307 307 308 308 308 308 307 306 306 305 305 304 304 304 303 304 304 304 304 304 303 303 302 302 301 301 301 300 300 299 299
313 312 312 312 312 312 312 312 312 312 311 311 311 311 312 311 311 311 310 310 309 309 310 309 310 310 309 309 308 308 307 307 307 307 307 307 307 307 307 307 307 307 307 307 306 305 305 304 304 304 303 303 302 302 302 303 303 303 302 302 301 301 301 301 300 300 300 299 299
313 312 312 312 312 312 312 312 312 312 311 311 311 311 311 309 310 310 310 309 309 309 310 310 310 309 309 308 308 307 307 306 306 306 305 306 305 305 306 306 306 306 306 305 305 304 304 303 303 303 303 302 302 301 301 301 301 301 301 301 300 300 300 300 300 300 299 299 299
313 312 312 312 312 312 311 312 311 310 310 310 311 311 310 309 310 310 309 309 309 309 309 309 309 308 308 307 307 306 306 306 305 305 305 305 304 304 305 305 305 305 304 304 303 303 302 302 302 302 301 301 301 301 300 300 300 300 300 300 300 299 299 299 299 299 299 298 298
312 312 312 312 312 311 311 311 310 310 309 310 310 310 310 310 310 309 309 309 309 309 308 309 308 307 306 306 305 305 304 305 305 305 304 304 304 304 304 303 303 303 303 302 302 302 301 301 301 301 300 300 300 300 300 299 299 299 299 300 299 299 298 298 298 298 298 298 297
312 312 312 312 311 311 311 311 310 309 309 309 309 309 309 309 309 309 308 308 308 307 307 307 307 306 306 305 305 305 304 304 304 304 304 304 304 303 303 302 302 302 302 302 302 301 301 301 300 300 299 299 299 299 299 299 298 298 298 298 298 298 297 297 297 297 297 297 296
312 312 311 312 311 311 311 310 310 309 309 309 309 309 309 309 308 308 307 307 307 307 307 306 306 305 305 305 304 304 304 304 304 303 303 303 303 303 302 302 302 302 301 301 302 302 301 300 300 299 299 298 298 298 299 298 298 298 297 297 296 296 296 296 296 296 296 296 295
312 311 311 311 311 311 310 310 309 309 308 308 308 309 309 308 307 307 307 307 307 306 306 306 305 305 305 305 304 304 304 304 303 303 303 303 303 302 302 302 301 301 301 301 301 301 301 300 300 299 299 298 297 297 297 298 297 297 297 296 296 295 295 295 295 295 295 295 294
311 311 311 310 310 310 310 309 309 309 308 308 308 308 308 307 307 306 306 306 306 306 306 305 305 305 304 304 304 304 304 304 303 303 302 302 302 301 301 301 301 301 301 300 300 300 300 300 300 299 299 298 297 297 296 297 297 296 296 296 295 295 295 294 294 294 294 294 293
310 310 310 310 309 309 309 309 309 308 308 308 308 307 307 307 307 306 305 305 305 305 305 305 304 304 304 303 304 303 303 303 303 302 302 302 301 301 300 300 300 300 300 300 299 299 299 299 299 299 298 298 297 296 296 296 296 296 295 295 295 294 294 293 293 293 293 292 292
309 309 309 309 309 309 309 309 308 308 308 308 307 307 307 306 306 305 305 305 305 305 304 304 304 304 304 304 304 303 303 302 302 302 301 301 301 300 300 300 299 299 299 299 298 298 297 297 297 297 297 297 296 295 295 295 294 294 294 294 294 293 293 293 293 292 292 292 291
308 308 308 308 308 308 308 307 307 307 307 307 306 306 306 305 305 305 305 304 304 304 304 304 304 304 304 303 304 303 302 302 302 301 301 300 300 299 299 299 299 298 298 298 297 297 296 296 296 295 295 294 294 294 294 294 294 293 293 293 292 292 292 292 292 292 292 291 291
308 308 308 308 308 308 307 307 307 306 306 306 306 305 305 305 305 304 304 304 304 304 304 303 303 303 303 303 303 302 301 301 301 300 300 300 299 298 297 297 297 297 296 296 296 295 295 294 294 293 293 293 293 293 293 293 293 293 293 292 292 292 292 292 292 292 291 291 291
308 308 308 308 308 307 307 307 307 306 306 305 305 305 304 304 304 303 303 304 304 304 303 303 302 302 302 302 301 301 300 300 299 299 298 297 297 296 296 295 295 295 294 294 294 294 293 293 293 292 292 292 292 292 292 292 292 292 292 292 292 292 291 292 292 291 291 291 291
307 308 308 308 307 307 307 306 306 305 305 304 304 304 304 303 303 303 303 303 303 302 302 301 301 301 300 299 299 299 298 298 297 297 296 296 295 295 294 294 293 293 293 292 292 292 292 292 292 292 292 292 292 292 292 292 291 291 291 292 292 292 292 292 292 292 292 292 292
307 307 307 307 307 307 306 306 305 305 304 304 303 303 303 303 302 302 302 302 301 300 300 300 299 299 298 297 297 297 296 296 296 295 295 295 294 293 293 293 292 292 292 292 292 292 292 291 291 291 292 292 292 292 292 292 292 292 292 292 292 292 292 292 292 292 291 292 291
307 307 307 307 307 307 306 306 305 304 304 303 303 303 302 302 301 301 300 300 299 299 299 298 298 298 297 296 296 295 295 294 294 294 294 293 293 292 293 292 293 292 293 293 292 291 291 290 291 291 291 291 291 292 292 292 292 291 291 291 291 291 291 291 291 291 291 290 291
307 306 306 307 306 306 306 305 304 304 303 303 302 301 301 300 300 299 299 299 298 298 297 297 297 297 296 296 295 294 294 293 293 292 292 292 292 293 293 293 293 293 293 293 290 289 289 289 290 290 290 290 290 290 290 291 290 290 290 290 290 290 290 290 290 290 290 290 290
306 306 306 306 306 305 305 304 304 303 303 302 301 300 299 299 299 298 298 297 297 297 296 296 296 295 294 294 294 293 293 293 293 292 292 292 292 292 293 292 292 293 293 292 289 288 288 289 288 288 288 289 289 289 289 289 289 289 289 289 289 289 289 289 290 290 290 291 291
306 306 306 306 305 305 304 304 303 302 301 301 300 299 299 298 298 297 297 296 296 296 295 295 294 294 293 294 293 293 292 293 293 292 292 292 291 291 291 292 291 292 292 292 290 288 288 288 288 288 288 288 289 288 288 288 288 289 289 289 289 289 289 289 289 289 290 290 291
305 305 305 305 305 304 304 304 302 301 300 300 299 299 298 297 297 296 296 295 295 295 294 294 294 294 294 294 293 292 292 292 292 292 291 291 291 290 290 290 290 291 291 291 290 289 289 288 288 288 287 287 288 288 288 288 288 288 288 289 289 289 289 289 289 289 289 290 290
304 304 304 304 304 304 303 302 301 300 299 299 298 298 297 297 296 295 295 294 293 293 294 294 294 294 294 293 292 292 291 291 291 290 290 290 290 289 290 290 290 290 290 290 290 290 289 288 287 287 286 286 287 288 288 288 288 288 288 289 289 289 289 288 289 289 289 289 289
303 303 303 303 303 302 302 301 300 300 299 298 298 297 297 296 295 294 293 293 293 293 293 293 293 292 292 292 291 291 290 290 290 290 290 289 289 289 289 290 290 290 290 289 289 288 287 286 286 286 286 286 287 287 288 288 288 288 288 288 288 288 288 288 288 288 288 288 288
302 302 302 302 302 301 301 300 300 299 299 298 298 297 296 295 294 293 293 293 292 292 292 291 292 291 291 291 291 290 290 290 290 290 290 290 289 289 290 290 290 290 289 287 287 286 285 285 285 285 285 286 286 286 287 287 287 287 287 287 287 287 287 288 288 288 288 288 288
302 301 301 301 301 300 300 299 299 299 298 298 297 296 294 293 293 293 293 292 292 291 291 291 291 291 291 290 290 290 290 290 290 290 290 290 290 290 290 290 290 290 288 285 285 285 285 285 285 285 285 285 285 285 286 286 286 286 286 287 287 287 288 288 288 288 288 288 288
301 301 300 300 300 299 299 298 298 298 297 296 295 294 293 293 293 292 292 291 291 291 291 290 290 290 290 290 290 290 290 290 290 290 290 290 290 290 290 290 290 289 286 285 285 285 284 284 284 284 284 284 284 285 285 285 286 286 286 286 287 287 288 288 288 288 288 288 288
301 300 300 299 299 298 298 297 297 296 295 294 293 293 292 292 292 291 291 291 290 290 291 291 290 290 290 290 290 290 290 290 290 290 290 290 290 290 289 289 290 288 284 285 284 284 284 283 283 283 283 283 284 284 285 285 285 286 286 286 287 288 288 289 289 288 289 288 288
300 300 299 299 298 297 296 295 294 294 293 292 292 292 292 292 291 291 291 290 290 291 291 291 291 291 291 292 291 291 291 291 291 291 291 290 290 289 289 288 290 287 284 284 284 283 283 283 283 283 283 283 284 285 285 285 286 286 286 287 287 288 288 289 289 289 289 289 289
299 299 299 298 297 296 295 294 293 293 292 292 292 291 291 291 291 291 291 291 291 291 291 292 292 292 292 291 291 291 291 291 291 291 291 290 289 289 288 288 289 287 284 284 284 283 283 282 283 283 283 283 284 285 285 285 286 286 286 287 287 287 288 288 288 288 288 288 288
298 298 298 297 295 294 294 293 292 292 292 291 291 291 291 291 291 292 292 292 292 292 292 292 291 291 291 290 290 290 290 291 290 290 290 289 289 288 288 287 288 287 286 284 283 283 283 282 282 282 283 283 284 284 285 285 286 286 286 286 287 287 287 288 288 288 288 287 287
298 297 296 295 294 293 293 292 292 292 291 291 291 292 292 292 292 292 292 291 291 291 290 290 290 290 290 290 290 290 290 290 290 290 290 289 289 288 287 287 287 287 286 285 284 283 283 282 282 282 283 283 283 284 284 285 285 285 286 286 286 286 286 286 286 286 286 286 286
297 296 295 293 293 292 292 292 291 291 291 291 291 292 292 292 292 292 292 291 291 290 290 289 289 290 290 289 289 289 289 289 289 290 290 289 289 288 287 286 287 287 287 285 284 283 283 282 282 282 282 283 283 284 284 284 284 284 285 285 285 285 285 285 285 285 285 285 285
296 295 294 293 292 292 291 291 291 291 291 291 291 292 291 291 291 291 291 290 290 290 290 289 289 289 289 289 288 289 289 289 289 289 290 289 289 288 287 286 287 287 287 286 285 284 283 283 282 282 283 283 284 284 284 284 283 283 283 283 283 283 283 284 284 284 284 284 284
295 294 293 293 292 292 291 291 291 291 291 291 291 291 291 290 290 290 290 290 290 290 290 289 289 289 289 288 288 288 288 288 288 289 289 289 289 288 287 287 287 288 288 287 286 284 283 283 282 282 282 283 283 283 283 283 282 282 282 282 282 282 282 283 283 283 283 283 283
Wind_Speed
10 9 8 7 7 7 7 7 7 7 7 7 7 7 7 7 7 6 6 6 6 6 6 6 6 6 7 8 9 9 9 10 10 11 11 12 12 12 12 11 11 10 9 8 8 7 7 7 6 5 5 5 5 5 4 3 4 5 6 5 4 4 5 5 5 5 6 5 4
11 11 10 8 7 7 7 7 7 6 6 6 6 7 7 7 7 7 7 6 6 6 6 6 7 7 8 9 9 9 9 10 11 11 11 12 12 12 11 11 10 10 9 9 8 7 6 6 6 5 5 5 5 6 5 4 5 6 7 7 5 5 5 5 5 5 5 5 5
11 10 10 10 9 8 7 7 7 8 8 7 7 7 7 7 6 6 6 6 7 7 7 6 7 8 9 9 9 9 9 10 11 11 11 11 12 12 11 11 11 10 9 8 7 7 6 7 6 6 5 5 6 6 6 6 6 7 7 8 6 6 5 5 6 6 6 5 6
10 10 10 11 12 11 10 8 8 9 9 8 8 8 7 7 6 6 6 7 8 8 7 7 7 8 8 8 9 9 10 10 11 12 12 11 12 12 12 12 11 10 9 8 8 8 8 8 7 6 6 7 8 8 7 6 7 7 7 7 7 7 6 6 6 6 5 5 6
10 10 9 10 12 12 11 10 10 10 9 8 7 7 7 7 6 6 7 7 7 7 8 8 8 8 8 8 10 11 11 12 11 11 11 12 12 12 12 12 11 10 9 8 9 9 9 9 7 7 7 8 7 7 8 8 8 7 7 6 6 6 6 6 5 5 4 5 5
10 10 10 9 11 11 11 10 11 11 10 8 8 9 8 7 7 7 8 8 8 9 10 10 9 8 8 9 10 11 11 11 11 11 11 12 12 12 12 12 12 11 10 9 10 10 9 9 7 7 7 7 8 8 9 10 9 8 7 7 7 6 6 5 5 5 5 6 6
12 11 11 11 11 11 11 11 11 11 10 9 10 11 11 10 10 10 10 10 9 9 9 8 8 8 9 9 9 10 10 10 11 11 12 11 11 12 12 12 12 12 11 10 10 10 9 9 7 7 7 7 7 9 10 10 9 8 8 8 7 6 5 6 5 5 6 8 8
13 13 13 13 13 13 13 12 11 11 10 9 10 12 13 12 12 12 12 11 10 9 9 8 9 10 10 10 10 10 11 11 11 11 11 11 12 12 13 13 13 13 12 11 10 10 9 8 7 7 7 7 7 8 9 10 10 9 9 9 7 6 5 6 6 6 7 8 9
13 13 13 14 14 14 14 14 13 12 12 12 13 13 13 13 12 12 11 10 10 10 10 9 10 11 12 12 12 11 11 11 12 12 12 12 12 13 13 13 13 12 12 10 10 11 10 8 7 7 7 7 7 7 8 9 9 9 9 9 8 7 6 6 7 7 8 8 9
14 14 14 14 14 15 15 15 14 14 14 14 15 14 13 12 12 11 10 9 9 10 10 10 11 11 12 12 12 12 11 11 11 12 13 13 13 13 13 12 12 12 12 11 10 10 10 8 7 8 8 7 8 9 9 9 9 9 8 7 8 8 9 8 8 8 8 8 8
16 16 16 15 16 16 16 16 14 14 14 14 15 14 13 12 12 11 11 10 10 11 12 11 11 12 12 11 11 11 11 11 11 12 13 13 13 13 13 12 13 13 13 12 10 9 8 7 8 9 10 9 9 9 9 9 8 9 9 8 9 10 10 9 8 8 8 8 8
17 17 17 17 17 17 17 16 14 14 14 14 14 14 13 12 12 12 12 12 12 12 12 12 12 12 12 11 11 11 12 12 13 13 14 14 14 14 14 13 13 14 13 13 11 9 8 8 9 10 11 10 9 8 9 9 8 8 8 9 10 10 10 10 9 8 7 8 8
17 17 17 17 17 17 17 16 14 14 14 14 14 13 12 12 12 12 13 13 12 11 11 11 11 12 11 11 12 12 12 13 13 13 14 14 15 15 15 14 14 13 13 12 10 9 9 9 10 10 10 10 9 9 9 9 8 8 8 9 10 10 10 10 9 8 8 9 9
18 17 17 17 17 17 16 16 14 13 13 14 13 12 12 12 12 11 11 11 11 11 11 11 11 10 11 12 13 13 14 14 14 14 14 14 15 15 15 14 14 13 12 10 10 10 10 10 10 10 10 10 10 10 9 9 7 7 7 7 8 9 9 9 9 8 8 9 9
17 17 17 17 17 16 15 15 14 13 13 13 12 12 11 10 10 10 9 9 10 10 10 10 10 11 12 13 14 14 15 15 15 15 15 15 15 15 14 13 13 12 11 10 10 10 10 10 9 9 9 9 9 9 9 8 6 6 6 6 7 8 8 8 8 8 8 8 9
17 17 17 17 17 16 15 14 12 12 12 12 11 11 10 9 9 8 8 8 8 8 9 10 11 11 12 13 14 15 15 15 15 15 15 14 14 13 13 12 12 11 10 10 9 9 8 8 7 7 7 7 7 7 7 7 6 5 5 6 6 7 7 7 7 7 7 8 8
17 17 17 17 17 16 16 15 13 12 11 12 11 11 10 9 8 7 7 8 8 8 10 11 11 12 12 13 13 13 14 14 14 13 13 13 12 12 11 10 10 10 9 9 8 7 6 5 5 5 5 6 6 6 6 6 5 5 5 5 6 6 6 7 7 7 7 7 8
17 17 17 17 17 17 16 15 14 13 12 12 12 11 10 9 8 8 8 9 9 10 11 13 12 12 13 14 13 12 12 12 12 11 10 10 10 10 9 8 8 8 7 7 6 6 5 4 4 5 5 5 5 5 5 5 5 5 5 5 6 6 6 7 7 7 7 7 8
17 17 16 16 16 16 16 15 14 13 12 11 11 11 10 10 10 10 11 11 11 12 12 13 12 12 13 14 13 12 10 10 10 9 8 8 8 7 7 6 6 6 6 6 6 5 5 5 6 6 6 6 6 6 6 6 6 5 5 5 6 6 6 7 7 8 8 8 9
17 17 16 16 16 15 15 14 13 12 11 10 11 11 12 12 12 13 13 14 12 12 11 11 11 12 12 12 12 11 9 7 8 8 8 7 7 8 8 7 7 7 6 7 7 7 7 8 8 7 7 7 6 6 6 6 6 6 6 6 6 6 7 8 8 9 9 9 10
17 17 17 16 16 15 14 13 13 12 11 11 12 12 13 13 14 14 14 13 11 10 10 10 11 11 11 11 11 10 10 9 9 9 9 9 10 10 11 10 10 9 9 9 9 9 9 9 9 9 8 7 7 6 6 6 6 7 7 7 7 8 9 9 10 10 10 11 11
17 17 17 16 16 15 14 13 12 12 12 12 12 13 13 14 13 12 11 10 10 10 10 10 11 11 12 12 11 11 10 10 10 10 10 10 11 11 11 11 10 9 8 8 8 8 8 8 8 8 7 7 7 6 7 7 7 8 8 9 10 10 10 11 11 11 12 12 12
17 17 16 15 15 14 13 12 12 12 12 12 12 13 12 11 10 9 9 9 9 10 10 9 10 10 10 11 11 10 9 9 9 10 10 10 10 10 9 8 7 6 5 5 5 5 6 6 7 7 7 7 7 8 8 8 9 9 10 10 11 11 11 11 11 11 12 12 12
18 17 15 14 14 14 13 12 12 12 12 12 11 10 9 7 7 7 8 8 9 9 9 8 7 8 9 9 9 9 9 8 9 9 9 9 8 7 6 5 4 4 3 2 2 3 3 4 5 6 7 7 7 8 8 9 9 9 10 10 11 11 11 11 11 11 12 12 12
18 17 16 14 14 13 13 13 12 12 11 10 9 7 6 6 6 7 7 8 8 8 8 7 7 8 8 8 8 8 8 8 8 7 7 6 5 5 4 4 4 3 3 2 2 2 1 2 3 5 6 7 7 8 8 9 9 10 10 10 10 10 10 11 11 11 12 12 12
18 17 16 15 14 14 14 14 13 12 9 8 7 6 5 4 5 6 8 8 8 8 8 8 8 8 8 7 7 7 6 6 5 5 5 4 4 4 4 4 3 3 3 2 2 4 4 4 5 5 6 6 7 7 8 8 9 10 10 10 10 10 10 11 11 12 12 12 13
18 17 17 15 14 14 14 14 11 9 8 6 5 5 4 4 5 7 7 8 8 8 8 8 7 6 5 5 5 5 4 4 4 4 4 4 4 4 4 4 4 4 3 3 5 6 7 6 6 6 6 7 7 7 7 8 9 10 10 11 11 11 11 11 12 12 12 12 12
18 17 16 15 14 14 13 11 9 7 6 5 5 5 5 6 7 8 8 8 8 8 7 6 5 3 2 3 3 3 3 3 3 3 3 4 5 5 5 5 5 5 5 5 7 8 7 6 6 6 6 6 7 7 8 8 9 9 10 10 11 11 12 11 11 11 11 11 11
18 17 16 15 14 12 11 10 8 7 6 5 5 6 7 8 8 9 9 8 7 6 4 3 2 1 1 1 2 2 2 3 3 3 4 4 5 6 6 6 7 7 5 6 7 7 6 4 4 5 6 6 6 6 7 8 8 9 9 9 10 10 11 11 11 11 11 11 11
17 16 15 14 12 11 9 8 7 6 5 5 6 7 7 8 9 8 8 7 5 4 2 1 1 1 2 2 2 2 3 3 3 4 4 5 5 6 7 7 8 5 2 8 8 6 4 2 2 3 4 5 6 7 7 8 9 9 9 9 10 11 12 12 13 13 12 12 12
16 15 14 13 10 8 7 7 6 6 5 5 6 7 8 8 7 6 5 4 3 2 1 1 2 2 2 3 3 3 4 4 4 4 5 6 6 7 7 7 9 4 5 12 9 6 4 1 1 2 3 5 6 7 8 9 10 10 10 10 12 13 13 13 13 13 13 13 12
14 13 13 12 8 6 5 5 5 5 6 6 7 7 7 6 5 4 3 2 1 1 1 2 3 3 4 4 4 5 5 5 5 5 5 6 6 7 7 7 9 3 7 13 9 6 5 3 2 3 4 5 6 8 9 10 11 11 12 13 14 15 14 13 12 13 14 14 12
11 11 11 11 7 6 5 5 6 6 7 7 6 6 5 4 3 2 1 1 1 1 2 3 4 5 5 5 5 5 5 5 5 5 6 6 7 7 8 9 7 3 9 11 8 6 5 3 3 3 5 6 7 9 10 11 11 11 11 12 13 14 15 15 14 13 13 13 12
9 9 10 9 7 6 6 6 6 6 6 5 5 4 2 1 1 0 0 1 2 3 4 4 5 5 6 6 6 5 5 4 5 5 6 7 8 8 8 10 5 6 12 9 7 6 4 3 3 4 6 7 8 9 11 12 12 12 12 13 13 14 14 14 14 13 13 12 11
10 9 9 9 7 7 6 6 5 5 4 3 3 2 2 2 2 2 2 3 3 4 4 5 6 6 6 6 6 5 4 4 5 5 6 7 8 8 9 11 6 6 12 8 7 5 4 3 3 5 6 7 8 9 11 13 12 13 13 14 14 14 13 13 12 12 12 11 11
11 10 9 8 7 7 6 5 4 3 2 2 2 2 3 3 3 4 4 4 4 5 5 6 6 6 6 5 4 4 5 6 6 6 6 6 7 8 8 10 7 3 8 7 6 5 3 2 3 5 7 8 8 9 10 11 11 11 12 13 13 13 13 12 11 11 10 10 10
11 10 8 8 7 5 5 4 3 2 2 3 3 4 4 5 5 5 4 4 5 5 6 6 5 5 5 5 6 7 8 8 8 7 6 6 6 7 8 9 9 5 1 6 5 4 2 1 2 4 6 8 8 9 9 9 9 10 11 12 12 12 11 11 10 10 10 10 10
10 9 7 6 5 4 3 3 2 3 4 4 5 5 6 6 5 4 4 4 5 5 6 6 6 6 7 7 8 8 8 9 8 7 6 5 5 6 7 8 9 9 4 4 4 4 2 0 2 4 6 8 9 9 9 8 9 9 9 10 10 10 10 9 9 9 9 10 10
9 8 6 5 3 2 2 2 3 4 5 6 6 6 6 6 5 4 4 4 5 6 7 7 7 7 7 7 7 7 8 8 8 6 5 4 5 5 6 7 9 9 6 2 4 4 2 1 2 4 6 7 8 8 8 8 9 9 9 9 9 9 9 9 8 8 8 9 11
7 5 4 2 2 3 3 4 4 5 6 7 7 7 6 6 5 5 5 5 6 6 7 7 8 8 7 7 7 7 7 8 8 7 5 5 4 4 5 6 8 9 7 3 4 5 3 1 2 4 6 7 8 8 7 8 8 9 9 8 8 8 8 8 8 8 8 9 10
4 3 2 2 3 4 5 5 6 6 7 7 7 7 6 6 6 6 6 6 6 7 7 7 8 8 8 7 7 7 7 7 8 8 7 6 5 5 6 7 8 9 8 5 2 3 2 1 2 4 5 6 7 7 7 7 8 9 9 9 8 8 8 8 8 8 8 9 9
Wind_Direction
288 288 286 282 278 276 275 274 271 269 268 267 267 266 265 263 262 261 260 260 263 267 270 273 274 275 276 276 277 279 280 280 280 278 276 274 273 273 274 274 272 269 264 260 258 260 262 266 269 271 271 270 269 265 257 245 249 253 253 247 237 226 219 210 205 199 195 193 193
289 288 287 283 274 268 267 267 265 261 257 256 258 260 260 260 260 260 261 262 265 269 271 273 273 273 272 273 275 277 279 280 279 277 274 272 270 270 269 269 266 264 262 263 266 268 270 270 269 267 266 263 260 257 249 232 240 249 253 248 240 233 228 223 220 214 208 203 204
288 286 284 281 272 264 258 257 259 256 253 251 250 250 251 253 256 259 262 265 268 269 271 271 272 271 272 273 274 276 278 279 278 276 273 270 268 265 263 261 259 257 256 258 261 265 267 269 268 265 262 259 258 258 253 238 234 239 245 243 237 231 227 224 219 215 211 208 210
283 280 279 278 275 269 263 257 257 256 255 254 254 253 253 254 256 260 264 267 269 270 270 270 270 270 270 271 273 276 278 278 278 276 273 270 267 264 261 259 256 254 251 251 253 256 259 261 261 261 259 257 257 258 256 248 237 235 237 238 236 233 229 225 217 213 211 208 208
280 275 273 273 274 272 269 263 260 260 260 260 262 261 260 259 259 259 260 262 262 263 265 267 269 271 271 271 273 276 279 280 277 274 271 267 265 263 261 259 256 253 249 247 249 251 253 254 256 258 259 260 259 258 257 254 243 237 235 238 236 235 234 233 223 215 210 208 205
282 276 269 265 267 269 270 269 266 265 264 263 262 261 261 261 260 259 259 259 260 262 264 267 270 273 274 273 274 277 278 279 277 273 270 267 265 263 261 257 253 249 246 245 247 249 251 252 255 257 260 262 261 260 257 254 245 237 234 238 238 238 238 239 232 224 217 213 212
288 283 277 271 266 263 262 263 264 264 263 261 259 259 259 260 262 264 266 268 269 269 270 271 272 272 271 270 271 272 274 277 277 275 272 269 266 264 261 257 252 248 245 245 248 251 253 254 255 256 258 260 261 261 261 260 255 249 244 243 240 240 240 241 237 233 230 226 223
293 291 288 286 283 278 273 267 264 262 261 260 259 259 260 262 264 267 270 272 273 274 274 274 276 276 276 274 272 272 274 277 278 277 274 270 267 264 261 258 253 249 247 247 252 256 259 261 260 261 262 263 265 267 270 273 272 269 265 261 257 249 241 242 243 242 241 239 235
297 294 292 290 288 286 283 278 271 266 263 262 263 263 263 263 265 267 269 271 273 275 277 279 281 282 282 282 280 279 278 278 278 277 274 269 265 261 259 257 254 252 250 250 255 259 261 262 262 263 265 269 272 275 278 280 278 274 271 270 268 260 249 241 242 244 247 247 245
299 298 295 291 287 284 281 278 273 268 265 264 265 265 266 265 266 266 267 268 270 272 274 276 278 279 280 280 280 280 279 278 276 273 271 267 263 260 259 259 258 258 257 255 256 258 259 259 259 259 260 264 269 273 276 277 274 270 267 266 265 262 258 250 247 248 250 253 254
301 299 297 294 290 286 282 279 274 269 265 263 264 265 266 266 265 265 264 264 264 264 265 268 271 274 277 279 280 279 278 275 272 271 270 269 266 263 262 262 261 262 262 261 261 261 260 258 256 256 257 260 266 270 272 272 269 267 266 267 266 265 263 261 259 259 259 261 261
300 299 297 294 291 288 284 281 278 273 269 266 265 265 265 265 265 265 265 265 265 266 268 271 275 279 283 286 288 286 283 279 277 275 275 274 273 271 268 265 263 263 263 264 265 265 264 261 258 258 260 264 268 272 272 270 265 262 262 266 269 270 270 270 269 271 272 273 271
300 298 296 294 291 288 285 281 278 275 272 270 268 268 268 268 269 269 271 272 275 279 283 285 286 287 289 291 293 292 290 286 283 281 280 280 279 278 276 273 270 269 268 268 270 272 271 268 265 265 267 271 274 276 275 272 266 262 260 263 268 272 275 277 279 281 283 283 281
301 298 296 294 292 288 285 282 279 276 273 271 270 269 270 271 273 274 277 282 288 293 297 297 294 292 293 295 296 296 295 292 288 285 282 281 281 280 280 279 278 277 277 279 280 279 277 273 270 271 273 277 279 280 279 275 272 269 269 269 272 274 277 281 284 285 285 284 282
301 299 296 294 292 288 285 282 279 276 273 271 270 269 270 273 276 280 285 293 299 301 302 300 298 297 297 298 299 298 297 294 290 287 283 281 281 281 282 282 283 284 286 289 290 287 283 278 278 279 281 284 286 286 284 281 279 279 279 279 279 280 281 284 285 285 284 282 281
301 299 298 295 293 289 286 282 279 276 274 272 271 271 273 277 282 288 295 301 303 302 300 298 298 298 298 298 298 297 296 293 290 287 285 283 283 284 285 288 292 296 299 301 299 295 291 290 294 297 299 300 301 298 295 291 291 290 289 287 287 288 289 289 288 288 287 287 287
302 301 299 297 295 292 288 285 281 278 276 276 276 278 281 286 291 297 301 303 302 300 298 298 297 296 295 294 294 294 293 291 289 288 287 287 289 291 295 301 308 313 314 313 308 304 303 309 317 320 320 320 318 315 311 308 307 305 304 303 302 301 299 297 295 293 292 292 290
303 302 300 299 297 295 293 290 287 285 283 283 284 287 291 297 302 305 306 305 303 301 299 297 295 293 291 291 291 292 292 292 291 290 291 294 298 303 310 320 327 327 323 317 313 315 323 336 346 349 348 344 340 336 331 327 322 318 316 316 314 311 308 304 298 294 289 286 282
304 303 303 302 302 302 302 301 299 297 294 292 293 296 300 306 308 309 308 305 303 301 299 296 294 292 292 292 294 296 298 300 302 304 308 313 317 325 334 344 347 343 335 328 330 338 352 5 12 12 9 5 358 352 345 339 332 326 321 317 313 308 304 299 295 291 287 283 281
307 306 307 307 308 309 310 311 312 312 311 307 305 305 307 309 310 309 308 307 309 309 307 305 304 304 304 304 307 312 320 330 334 337 341 346 353 359 4 8 12 10 6 4 5 8 12 18 19 17 14 10 3 354 346 339 332 325 317 309 301 294 289 285 283 280 278 275 273
310 310 310 311 311 312 314 316 319 321 322 318 313 311 310 310 310 312 315 321 328 331 331 329 330 331 332 335 340 348 358 7 6 8 11 14 19 20 20 20 23 23 22 22 21 20 18 16 12 8 4 360 351 342 332 322 313 304 296 287 281 277 274 272 270 267 266 263 262
312 312 312 312 312 313 315 318 321 321 320 317 313 310 309 311 316 324 335 348 355 356 354 355 1 4 7 11 16 20 23 23 20 21 22 24 27 28 27 25 26 24 23 24 23 19 14 8 360 353 345 336 324 313 303 294 287 282 277 273 270 268 267 267 266 265 264 263 263
313 313 312 312 313 315 317 319 318 316 313 309 307 307 311 320 334 348 360 8 12 13 16 24 29 32 33 34 35 35 34 30 25 24 25 26 27 27 26 25 21 18 15 17 17 12 4 354 343 333 323 312 303 295 290 284 280 276 274 273 272 270 270 270 269 269 268 267 266
312 311 311 312 313 315 316 315 312 309 307 304 306 313 327 350 6 16 22 28 33 36 38 45 47 46 44 44 40 37 33 29 25 24 23 24 22 20 17 12 4 355 348 353 16 14 0 342 329 319 311 302 296 291 287 283 279 276 275 275 274 274 272 272 271 270 269 268 267
310 310 310 311 312 312 311 308 306 305 306 310 321 338 359 19 31 40 47 52 54 54 52 51 46 42 40 41 38 35 33 30 25 22 18 14 11 6 359 349 340 327 321 336 80 93 78 289 296 298 298 295 291 287 284 280 278 276 275 274 273 272 271 270 268 267 266 266 264
309 310 310 312 312 310 308 306 307 311 319 334 350 5 18 30 51 62 67 68 64 58 52 47 42 38 34 35 36 35 33 31 22 14 4 354 347 342 336 325 317 307 303 306 159 166 189 220 244 266 282 289 290 290 288 285 283 281 279 276 273 271 269 269 267 265 263 261 260
311 312 313 314 314 313 313 315 323 334 348 2 7 16 30 48 67 75 76 70 63 57 52 48 46 42 35 32 30 28 25 20 7 353 341 329 322 316 309 298 291 283 273 250 193 190 199 215 231 250 269 285 291 293 292 291 289 286 282 278 274 270 267 266 266 265 263 261 262
315 316 317 319 320 321 324 330 340 352 5 14 22 37 54 68 73 73 70 64 58 54 51 51 49 45 37 27 19 13 5 354 336 320 309 304 298 296 293 289 283 273 255 224 196 193 199 214 234 251 265 279 285 286 286 285 284 282 280 278 277 276 276 276 275 276 276 276 276
320 323 326 328 331 333 336 340 345 355 11 30 48 62 70 73 70 67 63 60 56 52 49 50 46 33 17 7 349 338 325 308 295 289 287 286 285 285 284 283 279 269 242 193 179 180 190 214 246 266 276 281 283 284 285 285 284 284 284 284 286 287 288 289 290 289 288 286 284
328 332 335 338 342 345 346 348 355 8 26 51 65 71 72 71 68 65 64 63 61 55 42 24 13 352 332 313 300 291 285 278 279 281 282 282 279 276 273 270 273 266 173 137 144 151 162 199 269 289 293 292 287 287 288 290 290 290 290 290 290 289 289 288 286 285 284 283 283
337 338 337 336 345 353 358 3 12 25 40 55 65 67 66 67 68 69 70 72 72 62 27 342 322 300 285 277 272 270 272 275 278 280 279 276 272 272 274 277 281 281 114 121 125 127 124 112 356 327 320 313 298 294 293 293 292 290 289 288 287 286 285 284 283 282 281 281 282
339 336 331 327 339 357 15 21 25 32 41 50 58 64 68 70 74 76 77 73 63 30 295 276 271 268 267 266 264 265 268 273 275 276 278 281 286 291 296 300 297 312 107 118 118 114 105 85 37 355 335 322 304 295 292 288 286 284 282 281 280 280 280 279 278 278 279 280 282
336 330 324 325 343 7 29 34 33 36 41 47 52 58 66 76 87 88 73 34 327 279 265 262 262 263 264 266 267 269 271 273 278 286 296 306 311 316 316 308 316 45 101 117 110 101 90 68 30 354 332 317 301 291 285 282 279 277 276 276 276 276 276 276 276 278 281 284 287
335 329 327 336 358 22 39 44 46 46 47 49 46 44 40 34 28 356 315 274 262 259 259 262 263 264 264 263 266 270 274 282 294 306 316 323 323 325 322 311 343 84 106 115 104 94 81 57 17 344 325 310 297 288 283 280 277 275 274 274 275 276 277 279 281 284 287 290 292
345 343 344 354 13 31 43 51 53 53 49 42 29 6 336 312 302 289 275 261 259 260 261 260 260 260 259 258 262 272 288 302 311 319 325 328 327 327 323 312 339 89 112 117 107 99 83 51 5 335 319 305 293 285 281 280 279 278 278 279 280 282 283 286 289 292 294 296 298
2 4 5 12 25 34 41 49 49 44 31 1 328 307 295 286 279 271 265 261 263 265 265 263 261 261 264 272 291 313 325 327 327 329 330 331 327 325 321 313 330 73 117 121 115 108 93 50 354 327 314 302 292 286 284 283 283 284 285 286 287 289 292 296 299 301 302 303 303
11 15 17 21 31 36 38 37 25 2 327 302 292 285 281 278 272 267 264 265 270 274 278 280 282 291 307 327 337 340 338 332 329 328 328 327 323 320 318 314 316 320 104 120 125 123 111 53 339 321 311 302 296 293 291 290 290 290 291 292 293 297 301 305 306 306 305 303 301
11 17 23 27 30 29 24 11 339 314 300 292 287 283 280 279 276 275 277 282 290 296 302 309 319 330 340 345 341 337 331 325 323 321 319 315 312 311 311 311 307 310 317 128 142 145 143 192 318 315 311 304 301 299 297 295 295 295 296 298 300 304 307 308 306 303 300 298 296
12 19 27 31 21 3 336 312 301 297 295 293 290 289 287 288 293 304 312 313 314 316 320 325 331 336 339 338 330 325 321 319 318 315 309 297 295 296 299 300 299 302 300 190 163 159 165 213 299 310 309 304 302 302 301 300 300 300 301 303 304 306 305 302 300 297 296 295 295
15 19 21 8 330 305 297 297 299 299 298 297 298 300 303 310 321 329 332 326 324 324 326 328 330 330 329 326 319 315 315 316 314 311 301 281 274 269 270 277 283 288 286 237 169 159 165 213 291 309 310 305 307 307 307 305 304 304 304 305 305 304 303 301 300 300 299 299 298
4 352 334 315 308 309 313 318 317 313 309 306 309 314 321 328 331 333 332 328 329 329 329 327 325 322 320 316 311 309 308 308 307 305 300 285 271 255 249 258 269 278 283 279 187 149 151 215 296 309 311 309 311 311 309 307 306 306 307 308 308 307 305 305 304 303 301 300 297